{"data":{"norad_id":61232,"intl_designator":"2024-173F","name":"2024-173F","alt_names":[],"object_type":"PAYLOAD","status":"ACTIVE","operator":null,"country":"PRC","launch_date":"2024-09-24","launch_site_code":"YSLA","launch_vehicle":null,"mission":null,"orbit_class":"UNKNOWN","rcs_meters":null,"size_class":null,"mass_kg":null,"dimensions":null,"purposes":[],"wikipedia_slug":null,"has_3d_model":false,"image_url":null,"decayed_at":null,"tle_current":{"epoch":"2026-05-25T04:27:50.950368Z","epoch_age_seconds":52368,"freshness":"FRESH","line1":"1 61232U 24173F   26145.18600637  .00052050  00000+0  39325-3 0  9996","line2":"2 61232  97.3504 240.7288 0006066 201.3564 158.7447 15.72281829 93984","mean_motion":15.72281829,"eccentricity":0.0006066,"inclination_deg":97.3504,"raan_deg":240.7288,"arg_perigee_deg":201.3564,"mean_anomaly_deg":158.7447,"bstar":0.00039325,"rev_number":9398,"period_min":91.586633734479,"perigee_km":348.29446410019,"apogee_km":356.45992392036,"semimajor_km":6730.5141940103,"source":"CELESTRAK","updated_at":"2026-05-25T13:38:02.344887Z"}}}